FW0268 Weather Reports


Display with metric or nautical units.
time (UTC)temp
F
wind
direction
speed
MPH
gust
MPH
rain 1hr
in
rain 24hr
in
rain mn
in
humidity
%
barometer
mb
20260505083059 51 325 0.0 0.0 0.00 0.00 0.00 78 1011.0
20260505082558 51 325 0.0 0.0 0.00 0.00 0.00 78 1010.8
20260505082058 52 325 0.0 0.0 0.00 0.00 0.00 77 1010.6
20260505081557 52 325 0.0 0.0 0.00 0.00 0.00 77 1010.6
20260505081057 52 325 0.0 1.0 0.00 0.00 0.00 77 1010.7
20260505080558 52 325 0.0 1.0 0.00 0.00 0.00 77 1010.7
20260505080056 52 325 0.0 1.0 0.00 0.00 0.00 77 1010.7
20260505075555 52 325 0.0 1.0 0.00 0.00 0.00 77 1010.8
20260505075054 52 325 0.0 1.0 0.00 0.00 0.00 76 1010.7
20260505074553 52 325 0.0 0.0 0.00 0.00 0.00 76 1010.6
20260505074056 52 325 0.0 1.0 0.00 0.00 0.00 76 1010.6
20260505073553 52 325 0.0 1.0 0.00 0.00 0.00 76 1010.4
20260505073059 52 325 0.0 1.0 0.00 0.00 0.00 76 1010.3
20260505072551 53 325 0.0 1.0 0.00 0.00 0.00 76 1010.3
20260505072054 53 325 0.0 0.0 0.00 0.00 0.00 75 1010.5
20260505071551 53 325 0.0 0.0 0.00 0.00 0.00 76 1010.4
20260505071050 53 325 0.0 1.0 0.00 0.00 0.00 75 1010.2
20260505070550 53 325 0.0 1.0 0.00 0.00 0.00 75 1010.3
20260505070050 53 325 0.0 1.0 0.00 0.00 0.00 75 1010.2
20260505065548 53 325 0.0 2.0 0.00 0.00 0.00 75 1010.2
20260505065048 53 325 0.0 2.0 0.00 0.00 0.00 75 1010.4
20260505064547 53 325 0.0 0.0 0.00 0.00 0.00 75 1010.2
20260505064047 53 325 0.0 0.0 0.00 0.00 0.00 75 1010.2
20260505063546 53 325 0.0 0.0 0.00 0.00 0.00 74 1010.2
20260505063050 54 325 0.0 0.0 0.00 0.00 0.00 74 1010.2
20260505062545 54 325 0.0 0.0 0.00 0.00 0.00 74 1010.1
20260505062045 54 327 0.0 0.0 0.00 0.00 0.00 74 1010.1
20260505061547 54 327 0.0 0.0 0.00 0.00 0.00 74 1010.1
20260505061043 54 327 0.0 1.0 0.00 0.00 0.00 74 1010.1
20260505060546 54 327 0.0 1.0 0.00 0.00 0.00 73 1010.2
20260505060041 54 327 0.0 1.0 0.00 0.00 0.00 73 1010.2
20260505055540 55 327 0.0 1.0 0.00 0.00 0.00 73 1010.2
20260505055041 55 327 0.0 0.0 0.00 0.00 0.00 72 1010.2
20260505054558 55 327 0.0 1.0 0.00 0.00 0.00 72 1010.1
20260505054039 55 327 0.0 1.0 0.00 0.00 0.00 73 1010.1
20260505053538 55 327 0.0 1.0 0.00 0.00 0.00 72 1010.1
20260505053044 55 327 0.0 1.0 0.00 0.00 0.00 72 1010.1
20260505052538 56 327 0.0 0.0 0.00 0.00 0.00 71 1010.0
20260505052037 56 327 0.0 0.0 0.00 0.00 0.00 71 1010.0
20260505051541 56 327 0.0 0.0 0.00 0.00 0.00 71 1010.1
20260505051034 56 327 0.0 0.0 0.00 0.00 0.00 71 1010.0
20260505050532 57 327 0.0 0.0 0.00 0.00 0.00 70 1010.0
20260505041542 59 327 0.0 1.0 0.00 0.00 0.00 67 1009.9
20260505041023 59 327 0.0 0.0 0.00 0.00 0.00 67 1009.8
20260505040522 60 327 0.0 0.0 0.00 0.00 0.00 66 1010.0
20260505040020 60 327 0.0 1.0 0.00 0.00 0.00 66 1010.0
20260505035524 60 327 0.0 1.0 0.00 0.00 0.00 64 1010.0
20260505035020 61 327 0.0 1.0 0.00 0.00 0.00 63 1010.1
20260505034521 61 327 0.0 1.0 0.00 0.00 0.00 63 1010.0
20260505034020 61 327 0.0 1.0 0.00 0.00 0.00 62 1010.1
20260505033520 61 327 0.0 0.0 0.00 0.00 0.00 63 1010.0
20260505033023 61 327 0.0 1.0 0.00 0.00 0.00 62 1010.0
20260505032527 61 327 0.0 1.0 0.00 0.00 0.00 62 1010.1
20260505032019 61 321 0.0 0.0 0.00 0.00 0.00 62 1010.0
20260505031528 62 321 0.0 2.0 0.00 0.00 0.00 62 1010.0
20260505031019 62 322 0.0 2.0 0.00 0.00 0.00 62 1009.9
20260505030519 62 322 0.0 2.0 0.00 0.00 0.00 62 1010.0
20260505030019 62 322 0.0 2.0 0.00 0.00 0.00 61 1009.9
20260505025521 62 321 0.0 1.0 0.00 0.00 0.00 62 1010.0
20260505025018 62 321 0.0 2.0 0.00 0.00 0.00 61 1010.1
20260505024518 63 321 0.0 2.0 0.00 0.00 0.00 61 1010.0
20260505024018 63 314 0.0 2.0 0.00 0.00 0.00 62 1010.0
20260505023518 63 314 0.0 1.0 0.00 0.00 0.00 62 1010.0
20260505023018 63 314 0.0 1.0 0.00 0.00 0.00 62 1010.2
20260505022518 64 314 0.0 1.0 0.00 0.00 0.00 61 1010.0
20260505022018 64 314 0.0 1.0 0.00 0.00 0.00 60 1010.0
20260505021518 64 314 0.0 1.0 0.00 0.00 0.00 60 1010.0
20260505021017 64 314 0.0 1.0 0.00 0.00 0.00 59 1010.0
20260505020517 65 314 0.0 2.0 0.00 0.00 0.00 59 1010.1
20260505020017 65 314 0.0 2.0 0.00 0.00 0.00 57 1010.1
20260505015520 65 314 0.0 2.0 0.00 0.00 0.00 56 1010.1
20260505015016 66 314 0.0 1.0 0.00 0.00 0.00 56 1010.1
20260505014521 66 314 0.0 2.0 0.00 0.00 0.00 54 1010.1
20260505014016 66 314 0.0 2.0 0.00 0.00 0.00 55 1010.2
20260505013516 67 314 0.0 2.0 0.00 0.00 0.00 55 1010.0
20260505013017 67 314 0.0 2.0 0.00 0.00 0.00 55 1010.1
20260505012516 67 314 0.0 2.0 0.00 0.00 0.00 54 1009.9
20260505012020 67 315 0.0 5.0 0.00 0.00 0.00 53 1009.9
20260505011517 67 315 1.0 5.0 0.00 0.00 0.00 53 1009.8
20260505011017 67 267 0.0 2.0 0.00 0.00 0.00 55 1009.6
20260505010516 67 267 0.0 2.0 0.00 0.00 0.00 54 1009.6
20260505010016 67 267 0.0 2.0 0.00 0.00 0.00 52 1009.5
20260505005515 68 271 0.0 1.0 0.00 0.00 0.00 54 1009.3
20260505005019 68 271 0.0 1.0 0.00 0.00 0.00 54 1009.3
20260505004517 69 271 0.0 2.0 0.00 0.00 0.00 54 1009.3
20260505004015 69 271 0.0 1.0 0.00 0.00 0.00 53 1009.2
20260505003514 69 271 0.0 1.0 0.00 0.00 0.00 53 1009.1
20260505003015 70 271 0.0 2.0 0.00 0.00 0.00 51 1008.9
20260505002517 70 271 0.0 2.0 0.00 0.00 0.00 49 1008.9
20260505002015 71 271 0.0 2.0 0.00 0.00 0.00 49 1008.9
20260505001515 71 273 0.0 6.0 0.00 0.00 0.00 47 1008.9
20260505001016 72 273 0.0 6.0 0.00 0.00 0.00 45 1008.9
20260505000514 72 226 0.0 2.0 0.00 0.00 0.00 45 1008.9
20260505000014 72 226 0.0 4.0 0.00 0.00 0.00 44 1008.9
20260504235513 73 174 0.0 2.0 0.00 0.00 0.00 42 1008.8
20260504235013 73 174 0.0 1.0 0.00 0.00 0.00 42 1008.7
20260504234513 74 174 0.0 2.0 0.00 0.00 0.00 42 1008.7
20260504234013 74 174 0.0 2.0 0.00 0.00 0.00 41 1008.7
20260504233513 74 167 0.0 2.0 0.00 0.00 0.00 40 1008.7
20260504233114 74 167 0.0 2.0 0.00 0.00 0.00 39 1008.7
20260504232513 75 167 0.0 3.0 0.00 0.00 0.00 40 1008.6
20260504232012 75 167 0.0 3.0 0.00 0.00 0.00 38 1008.6
20260504231512 75 113 0.0 6.0 0.00 0.00 0.00 36 1008.6
20260504231011 75 225 1.0 6.0 0.00 0.00 0.00 36 1008.7
20260504230511 75 270 0.0 5.0 0.00 0.00 0.00 37 1008.6
20260504230011 75 153 1.0 5.0 0.00 0.00 0.00 37 1008.7
20260504225511 76 247 1.0 3.0 0.00 0.00 0.00 36 1008.7
20260504225011 76 264 0.0 3.0 0.00 0.00 0.00 37 1008.6
20260504224515 76 265 0.0 4.0 0.00 0.00 0.00 37 1008.7
20260504224010 76 204 0.0 4.0 0.00 0.00 0.00 37 1008.6
20260504223511 76 184 1.0 5.0 0.00 0.00 0.00 36 1008.7
20260504223010 76 164 1.0 5.0 0.00 0.00 0.00 36 1008.7
20260504222510 77 135 1.0 7.0 0.00 0.00 0.00 36 1008.7
20260504222008 77 162 1.0 7.0 0.00 0.00 0.00 35 1008.8
20260504221508 77 74 0.0 2.0 0.00 0.00 0.00 36 1008.8
20260504221008 77 62 0.0 2.0 0.00 0.00 0.00 36 1008.9
20260504220507 77 130 0.0 3.0 0.00 0.00 0.00 36 1009.0
20260504220109 77 151 1.0 3.0 0.00 0.00 0.00 36 1009.0
20260504215510 78 298 0.0 5.0 0.00 0.00 0.00 36 1009.0
20260504215007 78 216 1.0 5.0 0.00 0.00 0.00 36 1009.1
20260504214508 78 346 0.0 4.0 0.00 0.00 0.00 37 1009.1
20260504214009 78 346 2.0 4.0 0.00 0.00 0.00 36 1009.2
20260504213506 77 150 0.0 3.0 0.00 0.00 0.00 36 1009.1
20260504213005 77 127 0.0 3.0 0.00 0.00 0.00 37 1009.2
20260504212505 77 268 0.0 2.0 0.00 0.00 0.00 37 1009.2
20260504212006 77 310 0.0 4.0 0.00 0.00 0.00 37 1009.2
20260504211505 77 351 1.0 4.0 0.00 0.00 0.00 37 1009.2
20260504211005 77 242 1.0 4.0 0.00 0.00 0.00 37 1009.2
20260504210504 77 214 0.0 3.0 0.00 0.00 0.00 38 1009.0
20260504210010 77 241 0.0 4.0 0.00 0.00 0.00 37 1008.9
20260504205604 77 292 0.0 4.0 0.00 0.00 0.00 37 1009.1
20260504205004 77 338 0.0 3.0 0.00 0.00 0.00 39 1009.0
20260504204503 77 217 0.0 3.0 0.00 0.00 0.00 38 1009.1
20260504204004 77 207 0.0 2.0 0.00 0.00 0.00 39 1009.1
20260504203502 77 207 1.0 4.0 0.00 0.00 0.00 39 1009.1
20260504203002 77 198 0.0 4.0 0.00 0.00 0.00 40 1009.0
20260504202502 77 123 1.0 3.0 0.00 0.00 0.00 41 1009.2
20260504202102 77 123 0.0 3.0 0.00 0.00 0.00 40 1009.5
20260504201611 77 199 0.0 3.0 0.00 0.00 0.00 39 1009.6
20260504201059 77 198 0.0 3.0 0.00 0.00 0.00 38 1009.7
20260504200559 77 199 1.0 3.0 0.00 0.00 0.00 38 1009.7
20260504200104 77 199 0.0 3.0 0.00 0.00 0.00 38 1009.8
20260504195557 77 207 0.0 3.0 0.00 0.00 0.00 38 1009.8
20260504195101 77 241 1.0 6.0 0.00 0.00 0.00 37 1009.8
20260504194557 77 196 2.0 6.0 0.00 0.00 0.00 37 1009.9
20260504194056 77 159 0.0 3.0 0.00 0.00 0.00 38 1010.1
20260504193556 78 171 0.0 3.0 0.00 0.00 0.00 37 1010.2
20260504193055 77 15 0.0 4.0 0.00 0.00 0.00 37 1010.2
20260504192555 77 40 1.0 4.0 0.00 0.00 0.00 36 1010.3
20260504192054 77 349 0.0 4.0 0.00 0.00 0.00 37 1010.4
20260504191608 77 203 1.0 8.0 0.00 0.00 0.00 36 1010.6
20260504191054 77 148 2.0 8.0 0.00 0.00 0.00 38 1010.4
20260504190556 76 126 1.0 6.0 0.00 0.00 0.00 40 1010.5
20260504190054 76 242 1.0 6.0 0.00 0.00 0.00 39 1010.6
20260504185551 75 126 1.0 6.0 0.00 0.00 0.00 40 1010.5
20260504185051 74 215 1.0 3.0 0.00 0.00 0.00 41 1010.6
20260504184550 74 49 1.0 5.0 0.00 0.00 0.00 42 1010.6
20260504184051 73 160 1.0 5.0 0.00 0.00 0.00 41 1010.7
20260504183549 73 213 0.0 3.0 0.00 0.00 0.00 42 1010.9
20260504183049 73 217 0.0 2.0 0.00 0.00 0.00 41 1010.9
20260504182547 73 223 0.0 4.0 0.00 0.00 0.00 42 1011.2
20260504182047 74 226 1.0 6.0 0.00 0.00 0.00 39 1011.2
20260504181547 75 201 1.0 6.0 0.00 0.00 0.00 39 1011.3
20260504181048 75 86 0.0 5.0 0.00 0.00 0.00 38 1011.3
20260504180546 76 213 0.0 3.0 0.00 0.00 0.00 38 1011.4
20260504180045 76 50 0.0 2.0 0.00 0.00 0.00 37 1011.3
20260504175545 77 112 0.0 5.0 0.00 0.00 0.00 37 1011.5
20260504175045 77 15 1.0 5.0 0.00 0.00 0.00 35 1011.5
20260504174545 78 220 1.0 5.0 0.00 0.00 0.00 36 1011.7
20260504174045 79 246 1.0 5.0 0.00 0.00 0.00 34 1011.6
20260504173545 79 191 1.0 5.0 0.00 0.00 0.00 34 1011.5
20260504173044 79 331 1.0 5.0 0.00 0.00 0.00 35 1011.5
20260504172545 79 49 1.0 5.0 0.00 0.00 0.00 33 1011.8
20260504172043 78 155 1.0 4.0 0.00 0.00 0.00 37 1011.7
20260504171540 78 117 1.0 4.0 0.00 0.00 0.00 36 1011.7
20260504171039 77 327 0.0 5.0 0.00 0.00 0.00 36 1011.7
20260504170539 77 164 1.0 5.0 0.00 0.00 0.00 38 1011.8
20260504151007 65 150 0.0 8.0 0.00 0.00 0.00 46 1013.2
20260504150506 65 163 1.0 8.0 0.00 0.00 0.00 46 1013.3
20260504141052 58 153 0.0 3.0 0.00 0.00 0.00 55 1013.8
20260504140551 58 152 0.0 5.0 0.00 0.00 0.00 54 1013.8
20260504130534 52 233 0.0 3.0 0.00 0.00 0.00 66 1013.9
20260504110518 48 292 0.0 2.0 0.00 0.00 0.00 74 1014.1
20260504100513 48 182 0.0 0.0 0.00 0.00 0.00 72 1013.9